Location: Newark
(9.4667°S, 159.8167°E)
Time: 09:00:44
(UTC+00:00)

Courier 1B Rocket - Pass Details

Date: 27 November 2019
Orbit: 921 x 1202 km, 28.2° (Epoch: 14 December)

Event Time Altitude Azimuth Distance (km) Brightness Sun altitude
Rises 07:05:41 0° 337° (NNW) 3,919 8.2 4.0°
Reaches altitude 10° 07:10:12 10° 3° (N) 3,022 7.4 2.9°
Maximum altitude 07:13:39 14° 30° (NNE) 2,798 7.0 2.1°
Drops below altitude 10° 07:17:08 10° 58° (ENE) 3,094 7.0 1.3°
Sets 07:21:51 0° 82° (E) 4,087 7.6 0.3°
